Regional Weather Roundup
Issued by NWS State College, PA

Home | Current Version | Previous Version | Text Only | Print | Product List | Glossary On
Versions: 1 2 3 4 5 6 7 8 9 10 11 12 13 14 15 16 17 18 19 20 21 22 23 24 25 26 27 28 29 30 31 32 33 34 35 36 37 38 39 40 41 42 43 44 45 46 47 48 49 50
000
ASUS41 KCTP 240503
RWRCTP

REGIONAL WEATHER ROUNDUP
NATIONAL WEATHER SERVICE STATE COLLEGE PA
100 AM EDT THU APR 24 2014

Note: "fair" indicates few or no clouds below 12,000 feet with no
significant weather and/or obstructions to visibility.

* = STATION THAT DOES NOT REPORT PRECIPITATION /E.G. RAIN...SNOW...ETC/
    THUNDER OR FOG.

PAZ002>004-007>009-013>016-020>023-029>032-240600-
WESTERN PENNSYLVANIA

CITY           SKY/WX    TMP DP  RH WIND       PRES   REMARKS
ERIE           CLEAR     36  27  69 W3        30.12R
MEADVILLE      CLEAR     33  17  51 N3        30.08S
FRANKLIN*      CLEAR     30  12  47 NW3       30.10S
NEW CASTLE     FAIR      32  15  49 CALM      30.12R
BEAVER COUNTY  NOT AVBL
BUTLER*        CLEAR     34  10  37 CALM      30.11S
PITTSBURGH INT CLEAR     36  15  42 NW8       30.09S
PITTSBURGH     CLEAR     40  13  33 NW9       30.08S
INDIANA*       CLEAR     36  18  48 NW5       30.08S
LATROBE        CLEAR     37  18  44 CALM      30.10R
WASHINGTON CO* CLEAR     37  21  52 NW3       30.12S
$$

PAZ004>006-010>012-017>019-024>028-033>037-041-042-045-046-049>053-240600-
CENTRAL PENNSYLVANIA

CITY           SKY/WX    TMP DP  RH WIND       PRES   REMARKS
BRADFORD       CLEAR     31  17  56 NW7       30.02R
DUBOIS         CLEAR     31  21  66 W5        30.04R
CLEARFIELD     CLEAR     35  23  61 W6        30.04R
JOHNSTOWN      CLEAR     34  14  43 NW18G30   30.01S
ALTOONA        CLEAR     39  21  48 NW14G21   30.02S
STATE COLLEGE  CLEAR     41  21  45 NW8G17    30.02R
WILLIAMSPORT   CLEAR     41  20  43 NW9       29.98S
SELINSGROVE    CLEAR     34  30  85 CALM      29.99R
FT INDIANTOWN  CLEAR     45  25  46 VRB1      29.95S
CAPITAL CITY   CLEAR     45  25  45 W9        29.97S
HARRISBURG     CLEAR     46  26  45 NW13      29.96R
YORK           CLEAR     43  27  53 NW10      29.97R
$$

PAZ038>040-043-044-047-048-054-055-060>062-067>071-240600-
EASTERN PENNSYLVANIA

CITY           SKY/WX    TMP DP  RH WIND       PRES   REMARKS
SCRANTON       CLEAR     39  25  57 W12G17    29.92R
MOUNT POCONO   CLEAR     35  24  64 NW15G26   29.85R
ALLENTOWN      CLEAR     43  25  49 NW10      29.92R
QUAKERTOWN*    CLEAR     41  27  56 W3        29.92S
READING        CLEAR     42  28  57 W6        29.94S
LANCASTER      CLEAR     38  28  67 NW7       29.95R
COATESVILLE    CLEAR     39  28  65 NW9       29.94S
POTTSTOWN      CLEAR     41  29  62 W8        29.94F
BLUE BELL      CLEAR     45  28  53 W5        29.92S
DOYLESTOWN     CLEAR     41  25  53 NW10G20   29.90R
WILLOW GROVE   NOT AVBL
NORTH PHILA    CLEAR     46  23  40 W8G18     29.93S
PHILADELPHIA   CLEAR     47  25  42 NW12      29.94F
$$



USA.gov is the U.S. government's official web portal to all federal, state and local government web resources and services.